Regional Weather Roundup
Issued by NWS

Home | Current Version | Previous Version | Graphics & Text | Print | Product List | Glossary On
Versions: 1 2 3 4 5 6 7 8 9 10 11 12 13 14 15 16 17 18 19 20 21 22 23 24 25 26 27 28 29 30 31 32 33 34 35 36 37 38 39 40 41 42 43 44 45 46 47 48 49 50
147
ASUS43 KMKX 292221
RWRWI

WISCONSIN REGIONAL WEATHER ROUNDUP
NATIONAL WEATHER SERVICE MILWAUKEE/SULLIVAN WI
500 PM CDT SAT APR 29 2017

NOTE: "FAIR" INDICATES FEW OR NO CLOUDS BELOW 12,000 FEET WITH NO
SIGNIFICANT WEATHER AND/OR OBSTRUCTIONS TO VISIBILITY.

WIZ001-002-006>008-014>016-023>028-292300-
NORTHWEST WISCONSIN

CITY           SKY/WX    TMP DP  RH WIND       PRES   REMARKS
SUPERIOR ARPT  CLOUDY    43  28  56 NE12      30.37F
ASHLAND        MOSUNNY   46  20  35 NE14      30.38S
HAYWARD        CLOUDY    50  22  33 NE14      30.32F
SIREN          CLOUDY    54  19  25 E7        30.28F
CUMBERLAND     PTSUNNY   52  23  32 NE10      30.25F
RICE LAKE      PTSUNNY   54  24  31 N12       30.28F
CHETEK         NOT AVBL
LADYSMITH      PTSUNNY   53  24  32 E14       30.29F
EAU CLAIRE     CLOUDY    54  25  32 NE13G22   30.21F
MENOMONIE      PTSUNNY   54  25  32 NE13G18   30.22F
NEW RICHMOND   CLOUDY    53  22  29 NE14      30.23F
OSCEOLA        PTSUNNY   55  23  28 NE15G21   30.26F
$$

WIZ003>005-009-010-017-018-292300-
NORTH CENTRAL WISCONSIN

CITY           SKY/WX    TMP DP  RH WIND       PRES   REMARKS
MANITOWISH WTR CLOUDY    48  21  34 E9        30.31S
ARBOR VITAE    CLOUDY    52  23  32 E8        30.29S
WOODRUFF       CLOUDY    52  23  32 E8        30.29S
RHINELANDER    PTSUNNY   50  25  37 NE8       30.29S
EAGLE RIVER    CLOUDY    48  19  31 NE8       30.29S
LAND O LAKES   CLOUDY    49  18  29 N7        30.32S
PHILLIPS       CLOUDY    49  24  38 NE5G16    30.29S
TOMAHAWK       PTSUNNY   49  24  38 NE8       30.28F
MEDFORD        CLOUDY    49  28  44 N12       30.23F
MERRILL        CLOUDY    51  29  42 NE9       30.26F
$$

WIZ029-030-035-036-043>047-292300-
CENTRAL WISCONSIN

CITY           SKY/WX    TMP DP  RH WIND       PRES   REMARKS
WAUSAU         CLOUDY    51  27  39 E10       30.23F
MOSINEE        CLOUDY    50  27  40 NE10G17   30.25F
MARSHFIELD     PTSUNNY   50  27  40 NE10      30.22F
STEVENS POINT  CLOUDY    46  28  48 NE10      30.23F
WAUPACA        CLOUDY    48  32  53 N10G16    30.23F
WAUTOMA        CLOUDY    46  29  51 NE13G20   30.23F
WISC RAPIDS    CLOUDY    49  30  48 E8        30.23F
CAMP DOUGLAS   CLOUDY    47  29  49 NE8G18    30.21F
$$

WIZ011>013-019>022-031-037>040-048>050-292300-
NORTHEAST WISCONSIN

CITY           SKY/WX    TMP DP  RH WIND       PRES   REMARKS
ANTIGO         CLOUDY    49  28  44 NE10      30.25F
SHAWANO        CLOUDY    49  33  53 SE8       30.26F
OCONTO         NOT AVBL
STURGEON BAY   CLOUDY    45  28  51 NE8       30.29S
GREEN BAY      CLOUDY    47  33  58 NE21G28   30.24F
MANITOWOC      CLOUDY    42  27  55 NE16G23   30.23F
APPLETON       CLOUDY    45  25  45 NE18G25   30.21F
CLINTONVILLE   CLOUDY    46  32  57 E8        30.26F
OSHKOSH        CLOUDY    45  31  58 NE16G25   30.22F
$$

WIZ032>034-041-042-053>061-292300-
SOUTHWEST WISCONSIN

CITY           SKY/WX    TMP DP  RH WIND       PRES   REMARKS
LA CROSSE      CLOUDY    51  28  41 NE13      30.19F
SPARTA         CLOUDY    48  29  48 NE10G20   30.20F
VIROQUA        CLOUDY    45  29  53 NE17      30.17F
BOSCOBEL       LGT RAIN  45  37  73 E5        30.19S
PRAIRIE DU CHI LGT RAIN  45  35  68 E7        30.17S
PLATTEVILLE    CLOUDY    42  38  84 NE12G22   30.17R
$$

WIZ056-057-062-063-064-067-068-292300-
SOUTH CENTRAL WISCONSIN

CITY           SKY/WX    TMP DP  RH WIND       PRES   REMARKS
REEDSBURG      CLOUDY    45  31  57 NE14      30.19F
BARABOO/DELLS  CLOUDY    44  29  56 NE13G22   30.20F
LONE ROCK      LGT RAIN  43  34  70 NE9       30.20S
MINERAL POINT  LGT RAIN  43  37  81 NE15G23   30.18R
MADISON        LGT RAIN  43  36  76 NE12      30.20R
MIDDLETON      CLOUDY    44  37  76 E15G23    30.20R
WATERTOWN      DRIZZLE   41  34  75 NE10G17   30.19R
MONROE         LGT RAIN  39  36  87 NE17G24   30.16S WCI  30
JANESVILLE     LGT RAIN  41  39  93 NE14      30.19R FOG
$$

WIZ051-052-058>065-066-070>072-292300-
SOUTHEAST WISCONSIN

CITY           SKY/WX    TMP DP  RH WIND       PRES   REMARKS
MILWAUKEE      LGT RAIN  39  35  86 N22G30    30.19R WCI  29
WAUKESHA       LGT RAIN  37  30  75 NE12G17   30.19R WCI  30
MILWAUKEE/TIMM LGT RAIN  39  30  70 NE9       30.20S WCI  33
RACINE         LGT RAIN  38  33  82 N18G29    30.21R WCI  28
KENOSHA        RAIN      38  35  89 N12G18    30.21R FOG     WCI  30
FOND DU LAC    CLOUDY    44  27  51 NE18G29   30.22R
SHEBOYGAN      CLOUDY    43  34  70 NE21G32   30.21F
WEST BEND      RAIN      39  32  75 NE13G22   30.20S WCI  32
JUNEAU         DRIZZLE   40  31  68 N14G24    30.21R WCI  33
$$

LSZ147-162-292300-
LAKE SUPERIOR

STATION/POSITION TIME  TEMP    WIND        PRES    WAVE
                       AIR SEA DIR/SP/G            HT/PER
                 (UTC) (F)     (DEG/KT/KT) (MB)    (FT/S)
DEVILS ISLAND    2200   38      80/  6/  6 1030.1F
SAXON HARBOR     2130   39      40/  8/  9 1028.8F
$$

LMZ867-665-643>646-292300-
LAKE MICHIGAN

STATION/POSITION TIME  TEMP    WIND        PRES    WAVE
                       AIR SEA DIR/SP/G            HT/PER
                 (UTC) (F)     (DEG/KT/KT) (MB)    (FT/S)
CHAMBERS ISLAND  2140   45      40/ 10/ 12 1025.4F
N MID LAKE BUOY  2150   38 38   CALM  /  2 1027.3F   1
NORTHPORT PIER   2140   44     310/  3/  5 1025.7F
SISTER BAY       2106   48      20/ 11/ 15   N/A
KEWAUNEE LAKESHO 2154   41      20/ 10/ 15 1024.5F
SHEBOYGAN LAKESH 2200   40      20/ 25/ 29 1023.5F
PORT WASHINGTON  2140   41      20/ 14/ 19 1023.4F
MILWAUKEE LAKESH 2200   39      20/ 19/ 22   N/A
S MID LAKE BUOY  2150   40 41   20/ 17/ 21 1021.8R   6/ 7
KENOSHA   LAKESH 2200   40      10/ 21/ 26 1022.4
$$

TC  - TEMPERATURE IN CELSIUS
VSB - VISIBILITY IN STATUTE MILES
WCI - WIND CHILL INDEX
HX  - HEAT INDEX





USA.gov is the U.S. government's official web portal to all federal, state and local government web resources and services.